User: anonymous   Login
Location: Unspecified
(0.0000°N, 0.0000°E)
Time: 07:24:41
(UTC+00:00)
Language:

Hubble Space Telescope - Orbit

View from above orbital plane
View from above orbital plane
View from above satellite
View from above satellite

Ground track
Ground track

The orbit data is extracted from the following two-line orbital elements,

1 20580U 90037B   17230.66504112 +.00000492 +00000-0 +19327-4 0  9993
2 20580 028.4701 314.6674 0002891 122.0743 001.5583 15.08817139299644
Epoch (UTC): 18 August 2017 15:57:39
Eccentricity: 0.0002891
inclination: 28.4701°
perigee height: 538 km
apogee height: 542 km
right ascension of ascending node: 314.6674°
argument of perigee: 122.0743°
revolutions per day: 15.08817139
mean anomaly at epoch: 1.5583°
orbit number at epoch: 29964

The dashed part of the orbit path shows where the satellite is in the earth's shadow,  

DLR